Flag for Denmark Weather past 2 weeks in Randers, Denmark

Now
50 °F

Sprinkles. Fog.


Feels Like: 50 °F
Forecast: 52 / 55 °F
Wind: 2 mph from West

Location: Tirstrup

Current Time: Oct 22, 2014 at 9:59:41 AM

Latest Report: Oct 22, 2014 at 9:20 AM


Visibility: 3 mi

Pressure: 29.62 "Hg

Humidity: 88%

Dew point: 46 °F

Location of RandersLocation

Historic Weather in Randers — Graph

°F

Randers temperature yesterday

Maximum temperature yesterday: 55 °F (at 11:50 AM)
Minimum temperature yesterday: 46 °F (at 2:20 AM)
Average temperature yesterday: 52 °F

Past Weeks' High & Low Weather Summary

 TemperatureHumidityPressure
High63 °F (Oct 11, 4:20 PM)94% (Oct 11, 6:50 AM)30.12 "Hg (Oct 11, 6:50 AM)
Low43 °F (Oct 12, 10:50 PM)55% (Oct 12, 3:20 PM)29.33 "Hg (Oct 21, 7:20 PM)
Average55 °F83%29.75 "Hg
* Reported Oct 7 9:20 AM — Oct 22 9:20 AM, Randers, Weather by CustomWeather, © 2014

Note: Actual official high and low records may vary slightly from our data, if they occured in-between our weather recording intervals... More about our weather records

Advertising

Randers weather history for previous 24 hours

 ConditionsComfort  
Time TempWeatherWind HumidityBarometerVisibility
9:20 AM
Oct 22
50 °FSprinkles. Fog.2 mph88%29.62 "Hg2 mi
8:20 AM46 °FLow clouds.2 mph93%29.59 "HgN/A
7:50 AM46 °FPassing clouds.2 mph87%29.56 "Hg4 mi
7:20 AM46 °FFog.2 mph87%29.53 "Hg0 mi
6:50 AM46 °FFog.No wind93%29.50 "Hg0 mi
6:20 AM48 °FFog.2 mph87%29.50 "Hg0 mi
5:50 AM48 °FFog.2 mph94%29.47 "Hg1 mi
5:20 AM50 °FFog.1 mph88%29.47 "Hg1 mi
4:50 AM50 °FFog.1 mph88%29.47 "Hg1 mi
4:20 AM52 °FFog.1 mph88%29.45 "Hg1 mi
3:50 AM52 °FOvercast.1 mph88%29.45 "HgN/A
3:20 AM52 °FMostly cloudy.2 mph88%29.42 "HgN/A
2:50 AM52 °FOvercast.1 mph88%29.42 "HgN/A
2:20 AM52 °FOvercast.3 mph88%29.42 "HgN/A
1:50 AM52 °FPassing clouds.3 mph88%29.39 "Hg6 mi
1:20 AM52 °FPassing clouds.1 mph88%29.36 "HgN/A
12:50 AM52 °FSprinkles. Passing clouds.5 mph94%29.36 "Hg3 mi
12:20 AM54 °FLight rain. Passing clouds.9 mph88%29.36 "Hg4 mi
11:50 PM
Oct 21
54 °FPassing clouds.10 mph88%29.33 "Hg2 mi
11:20 PM54 °FRain. Passing clouds.12 mph88%29.33 "Hg2 mi
10:50 PM54 °FLight rain. Passing clouds.10 mph88%29.33 "Hg2 mi
10:20 PM54 °FRain. Passing clouds.12 mph88%29.33 "Hg2 mi
9:50 PM54 °FLight rain. Passing clouds.10 mph88%29.33 "Hg2 mi
9:20 PM54 °FLight rain. Passing clouds.10 mph88%29.33 "Hg3 mi
8:50 PM54 °FRain. Passing clouds.12 mph88%29.33 "Hg4 mi
8:20 PM54 °FRain. Passing clouds.10 mph88%29.33 "Hg4 mi
7:50 PM54 °FRain. Passing clouds.8 mph88%29.33 "Hg5 mi
7:20 PM54 °FLight rain. Passing clouds.9 mph88%29.33 "Hg6 mi
6:50 PM54 °FLight rain. Partly sunny.8 mph88%29.36 "Hg5 mi
6:20 PM54 °FLight rain. Partly sunny.8 mph88%29.36 "Hg5 mi
5:50 PM54 °FLight rain. Partly sunny.9 mph88%29.36 "Hg4 mi
5:20 PM55 °FSprinkles. Partly sunny.9 mph82%29.36 "Hg4 mi
4:50 PM55 °FSprinkles. Partly sunny.9 mph82%29.39 "Hg4 mi
4:20 PM55 °FSprinkles. Partly sunny.8 mph82%29.39 "HgN/A
3:50 PM55 °FSprinkles. Partly sunny.10 mph82%29.42 "HgN/A
3:20 PM55 °FSprinkles. Partly sunny.10 mph82%29.42 "HgN/A
2:50 PM55 °FPartly sunny.8 mph82%29.45 "HgN/A
2:20 PM55 °FSprinkles. Partly sunny.8 mph82%29.45 "HgN/A
1:50 PM55 °FPartly sunny.9 mph82%29.45 "HgN/A
1:20 PM55 °FPartly sunny.9 mph82%29.47 "HgN/A
12:50 PM55 °FPartly sunny.8 mph82%29.50 "HgN/A
12:20 PM55 °FPartly sunny.7 mph82%29.50 "HgN/A
11:50 AM55 °FPartly sunny.7 mph82%29.53 "HgN/A
11:20 AM54 °FPartly sunny.7 mph88%29.53 "HgN/A
10:50 AM54 °FPartly sunny.6 mph88%29.56 "HgN/A
10:20 AM54 °FPartly sunny.5 mph88%29.56 "HgN/A
9:50 AM54 °FPartly sunny.5 mph88%29.56 "HgN/A
9:20 AM52 °FPartly sunny.5 mph94%29.59 "Hg6 mi
Weather by CustomWeather, © 2014

See weather overviewHow to use our weather pages